Simultaneous Nadir Overpasses (SNOs) Predictions

Prediction of SNOs between LANDSAT-8 and TERRA Satellite Orbit:

Table of predicted SNOs for the next 14.0 days since TLE Epoch: 10/30/2022
Index Date (LANDSAT-8) Time (LANDSAT-8) Lat,Lon (LANDSAT-8) SZA (LANDSAT-8 ) Date (TERRA) Time (TERRA) Lat,Lon (TERRA) SZA (TERRA ) Distance(km) Time Diff (sec)
1 11/13/2022 05:53:15 69.86,-138.13 121.23 11/13/2022 05:54:28 69.86,-138.01 121.36 4.78 73
2 11/13/2022 06:39:35 -59.35, 39.31 49.10 11/13/2022 06:40:45 -59.32, 39.34 48.96 3.08 70
3 11/13/2022 07:26:24 49.98,-148.22 138.80 11/13/2022 07:27:31 49.99,-148.24 138.93 2.10 67
4 11/13/2022 08:16:42 -53.16, 18.00 43.79 11/13/2022 08:17:45 -53.14, 18.03 43.65 2.47 63
5 11/13/2022 09:04:11 46.12,-171.41 141.85 11/13/2022 09:05:11 46.14,-171.42 141.97 2.40 60
6 11/13/2022 09:53:34 -46.07, -3.74 38.11 11/13/2022 09:54:30 -46.06, -3.72 37.96 2.11 56
7 11/13/2022 10:43:23 47.24, 163.44 140.99 11/13/2022 10:44:15 47.22, 163.48 141.15 3.96 52
8 11/13/2022 11:32:27 -46.07, -28.46 38.10 11/13/2022 11:33:16 -46.07, -28.42 37.96 3.38 49
9 11/13/2022 12:21:57 46.11, 139.15 141.88 11/13/2022 12:22:42 46.11, 139.21 142.02 4.95 45
10 11/13/2022 13:11:20 -46.07, -53.18 38.08 11/13/2022 13:12:02 -46.08, -53.11 37.96 5.57 42
11 11/13/2022 14:24:05 48.15, -53.59 67.15 11/13/2022 14:24:41 48.17, -53.67 67.16 6.74 36
12 11/13/2022 15:13:37 -48.00, 113.98 112.98 11/13/2022 15:14:10 -48.02, 113.91 112.96 5.94 33
13 11/13/2022 16:03:05 47.73, -78.47 66.79 11/13/2022 16:03:34 47.74, -78.53 66.79 4.50 29
14 11/13/2022 16:52:37 -47.59, 89.10 113.34 11/13/2022 16:53:03 -47.60, 89.05 113.34 3.58 26
15 11/13/2022 17:42:05 47.32,-103.35 66.43 11/13/2022 17:42:27 47.31,-103.39 66.41 2.77 22
16 11/13/2022 18:31:37 -47.17, 64.22 113.70 11/13/2022 18:31:56 -47.17, 64.20 113.71 1.78 19
17 11/13/2022 19:19:48 51.47,-126.35 70.27 11/13/2022 19:20:03 51.45,-126.38 70.25 2.57 15
18 11/13/2022 20:08:49 -53.13, 42.05 108.18 11/13/2022 20:09:01 -53.12, 42.03 108.20 1.75 12



Historial Predications of SNOs between LANDSAT-8 and TERRA
